Hourly Data Report for October 15, 2014

All times are specified in Local Standard Time (LST). Add 1 hour to adjust for Daylight Saving Time where and when it is observed.

GJOA HAVEN A
NUNAVUT

68°38'08.000" N
95°51'01.000" W
46.90 m
2302337
71597
YHK

Download Data

Hourly Data (October 2014)
Hourly Data Report for October 15, 2014
Temp Definition
°C
Dew Point Temp Definition
°C
Rel Hum Definition
%
Wind Dir Definition
10's deg

Wind Spd Definition
km/h
Visibility Definition
km
Stn Press Definition
kPa
Hmdx Definition


Wind Chill Definition


Weather Definition


TIME
00:00 Legend Double Dagger -4.5 -4.6 99 35 18 16.1 100.90   -11 LegendNANA
01:00 Legend Double Dagger -4.6 -4.6 100 34 21 9.7 100.92   -11 Fog
02:00 Legend Double Dagger -4.8 -5.1 98 35 17 16.1 100.97   -11 LegendNANA
03:00 Legend Double Dagger -4.9 -5.3 97 33 22 9.7 100.97   -12 Snow
04:00 Legend Double Dagger -5.0 -5.5 96 35 17 16.1 100.99   -11 LegendNANA
05:00 Legend Double Dagger -5.1 -5.6 96 35 18 16.1 101.00   -11 LegendNANA
06:00 Legend Double Dagger -5.2 -5.6 97 34 22 16.1 101.00   -12 LegendNANA
07:00 Legend Double Dagger -5.3 -5.7 97 33 22 16.1 101.01   -12 LegendNANA
08:00 Legend Double Dagger -5.0 -5.5 96 34 22 16.1 101.02   -12 LegendNANA
09:00 Legend Double Dagger -5.0 -5.5 96 35 22 16.1 101.02   -12 LegendNANA
10:00 Legend Double Dagger -5.5 -6.0 96 34 34 16.1 101.01   -14 LegendNANA
11:00 Legend Double Dagger -5.6 -6.4 94 34 22 16.1 101.09   -13 LegendNANA
12:00 Legend Double Dagger -5.5 -6.3 94 35 22 16.1 101.11   -13 LegendNANA
13:00 Legend Double Dagger -5.2 -6.2 93 35 21 16.1 101.13   -12 LegendNANA
14:00 Legend Double Dagger -4.0 -4.8 94 34 24 16.1 101.16   -11 LegendNANA
15:00 Legend Double Dagger -4.6 -5.1 96 34 24 16.1 101.21   -12 LegendNANA
16:00 Legend Double Dagger -4.7 -5.1 97 32 22 16.1 101.21   -12 LegendNANA
17:00 Legend Double Dagger -4.4 -5.1 95 34 26 16.1 101.21   -12 LegendNANA
18:00 Legend Double Dagger -4.6 -5.0 97 33 22 16.1 101.21   -11 LegendNANA
19:00 Legend Double Dagger -4.6 -5.0 97 35 30 16.1 101.19   -12 LegendNANA
20:00 Legend Double Dagger -4.6 -4.9 98 35 28 16.1 101.21   -12 LegendNANA
21:00 Legend Double Dagger -4.7 -4.8 99 36 34 16.1 101.25   -13 LegendNANA
22:00 Legend Double Dagger -5.5 -5.9 97 35 28 16.1 101.27   -13 Snow
23:00 Legend Double Dagger -5.7 -6.2 96 34 30 14.5 101.33   -14 Snow

Notes on Data Quality.

Legend

  • E = Estimated
  • M = Missing
  • NA = Not Available
  • ‡ = Partner data that is not subject to review by the National Climate Archives
Date modified: